Location: Felsheim
(48.7267°N, 10.7386°E)
Time: 23:24:37
(UTC+00:00)

Thor Agena Rocket - Pass Details

Date: 09 April 2020
Orbit: 760 x 807 km, 99.0° (Epoch: 03 June)

Event Time Altitude Azimuth Distance (km) Brightness Sun altitude
Rises 21:30:42 0° 18° (NNE) 3,243 7.3 -28.5°
Reaches altitude 10° 21:33:03 10° 23° (NNE) 2,316 6.4 -28.7°
Enters shadow 21:36:20 38° 44° (NE) 1,177 4.5 -29.0°
